Tracking 29892 objects as of 21-Nov-2024
HD Live streaming from Space Station
objects crossing your sky now

ARIANE 3 DEB

Track ARIANE 3 DEB now!


NORAD ID: 27026
Int'l Code: 1988-081J
Perigee: 469.7 km
Apogee: 34,618.1 km
Inclination: 7.8 °
Period: 613.4 minutes
Semi major axis: 23914 km
RCS: 0.9682 m2 (medium)
Launch date: September 8, 1988
Source: France (FR)
Launch site: FRENCH GUIANA (FRGUI)

Note: This is SATELLITE DEBRIS
Your satellite tracking list
Your tracking list is empty




NASA's NSSDC Master Catalog

Two Line Element Set (TLE):
1 27026U 88081J   24325.86107569  .00006112  00000-0  28331-1 0  9998
2 27026   7.7794  50.2428 7139580 185.6886   8.5489  2.34747456252880
Source of the keplerian elements: AFSPC